Onweer radar Meer informatie blitzortung!


Regen radar Meer informatie rain snow radar


Bezoek onze andere websites:


Het weer levert geen direct gevaar op.    Er zijn geen waarschuwingen afgegeven.

Select another period ( hide this area )

Eenheden Periode Custom range Directly to
Metrisch Engels Beide
Dagelijkse Wekelijkse Maandelijkse Jaarlijkse
use both date-selectors for a custom range
previous Dag
With this date

WeatherUnderground graphs for this period ( click here )


Dagelijkse Samenvatting Donderdag 17 oktober 2019
Tijd Temp. ( °C ) Dew pt. ( °C ) Wind ( km/h ) van Windvlaag ( km/h ) Luchtdruk ( hPa ) Humid.( % ) Rainrate ( cm )
Hoog17,0 13,6 12,9 WZW ( 236/781 ) 20,9 1009,4 97 1,50
Gemiddeld14,2 12,3 3,5 Kalm #58/223 10,6 1007,4 89 1,00
Laag12,4 11,0 -   0,0 1005,0 71 -
Dagelijkse Tabular details for Donderdag 17 oktober 2019
Tijd Temp. ( °C ) Dew pt. ( °C ) Wind ( km/h ) van Windvlaag ( km/h ) Luchtdruk ( hPa ) Humid.( % ) Rainrate ( cm )
00:02 14,1 13,5 8,0 ZZW 12,9 1005,0 96 1,50
00:07 14,1 13,5 8,0 ZW 16,1 1005,0 96 1,50
00:12 14,1 13,5 3,2 ZZW 16,1 1005,0 96 1,50
00:17 14,1 13,5 1,6 WZW 16,1 1005,0 96 1,50
00:22 14,1 13,5 4,8 WZW 16,1 1005,0 96 1,50
00:27 14,0 13,4 6,4 ZW 11,3 1005,0 96 1,50
00:32 14,0 13,4 3,2 WZW 12,9 1005,0 96 1,30
00:37 14,0 13,4 6,4 ZW 12,9 1005,0 96 1,00
00:42 14,0 13,4 8,0 ZW 12,9 1005,0 96 0,80
00:47 14,0 13,4 1,6 Westen 14,5 1005,0 96 0,80
00:52 13,9 13,3 1,6 ZZO 9,7 1005,0 96 0,50
00:57 13,9 13,3 1,6 ZZW 11,3 1005,0 96 0,50
01:02 13,9 13,3 6,4 ZW 11,3 1005,0 96 0,50
01:07 13,9 13,3 3,2 Westen 11,3 1005,0 96 0,30
01:12 13,9 13,3 11,3 ZZW 11,3 1005,0 96 0,50
01:17 13,9 13,3 11,3 ZW 11,3 1005,0 96 0,50
01:22 13,9 13,3 1,6 Westen 11,3 1005,0 96 0,30
01:27 13,8 13,2 6,4 ZW 11,3 1005,0 96 0,30
01:32 13,8 13,2 6,4 WZW 11,3 1005,0 96 0,30
01:37 13,8 13,2 3,2 WNW 11,3 1005,0 96 0,30
01:42 13,8 13,2 1,6 ZZW 14,5 1005,0 96 0,30
01:47 13,8 13,2 6,4 Zuiden 14,5 1005,0 96 0,30
01:52 13,8 13,2 8,0 WZW 14,5 1005,0 96 0,30
01:57 13,8 13,2 6,4 WZW 9,7 1005,0 96 0,30
02:02 13,8 13,2 12,9 WZW 14,5 1005,0 96 0,30
02:07 13,8 13,2 9,7 WZW 14,5 1005,0 96 0,30
02:12 13,8 13,2 1,6 WZW 14,5 1005,0 96 -
02:17 13,8 13,2 9,7 WZW 14,5 1005,0 96 -
02:22 13,8 13,2 9,7 ZZW 14,5 1005,0 96 -
02:27 13,8 13,2 4,8 ZW 14,5 1005,0 96 -
02:32 13,8 13,2 1,6 Zuiden 14,5 1005,3 96 -
02:37 13,8 13,2   Kalm 14,5 1005,3 96 -
02:42 13,8 13,2 3,2 ZW 11,3 1005,3 96 -
02:47 13,8 13,2 6,4 ZW 12,9 1005,3 96 -
02:52 13,8 13,2 1,6 Westen 12,9 1005,3 96 0,30
02:57 13,9 13,3 1,6 ZW 12,9 1005,3 96 0,30
03:02 13,9 13,3   Kalm 11,3 1005,3 96 0,30
03:07 13,9 13,3 4,8 WZW 11,3 1005,3 96 0,30
03:12 13,9 13,3 6,4 WZW 11,3 1005,3 96 0,30
03:17 13,9 13,3 3,2 ZW 11,3 1005,3 96 0,30
03:22 13,9 13,3 3,2 ZW 11,3 1005,3 96 0,30
03:27 13,9 13,3 6,4 WZW 11,3 1005,3 96 0,30
03:32 13,9 13,3 6,4 ZZW 17,7 1005,3 96 0,50
03:37 14,0 13,4 1,6 ZZW 17,7 1005,3 96 0,50
03:42 14,0 13,4 4,8 ZW 11,3 1005,3 96 0,50
03:47 14,0 13,4 9,7 WZW 11,3 1005,3 96 0,30
03:52 14,1 13,6 1,6 ZW 11,3 1005,6 97 0,30
03:57 14,1 13,6 1,6 Zuiden 11,3 1005,6 97 0,30
04:02 14,1 13,6 3,2 ZZW 12,9 1005,6 97 0,30
04:07 14,1 13,6 8,0 ZW 12,9 1005,6 97 0,50
04:12 14,1 13,6 9,7 NNW 12,9 1005,6 97 0,50
04:17 13,8 13,2 1,6 WNW 12,9 1005,6 96 0,50
04:22 13,7 13,1 3,2 WNW 12,9 1005,6 96 0,50
04:27 13,6 13,0 3,2 Westen 12,9 1005,6 96 0,50
04:32 13,4 12,8 1,6 WNW 12,9 1006,0 96 0,30
04:37 13,4 12,8 6,4 Westen 11,3 1006,0 96 0,30
04:42 13,3 12,7   Kalm 11,3 1006,0 96 0,30
04:47 13,3 12,7 3,2 Westen 11,3 1006,0 96 0,30
04:52 13,3 12,7 6,4 WNW 11,3 1006,0 96 0,30
04:57 13,3 12,7 1,6 WZW 11,3 1006,0 96 0,30
05:02 13,3 12,7 6,4 WNW 9,7 1006,0 96 0,30
05:07 13,2 12,6 3,2 WZW 9,7 1006,3 96 -
05:12 13,2 12,6 6,4 Westen 9,7 1006,3 96 -
05:17 13,1 12,5 8,0 WNW 11,3 1006,3 96 -
05:22 13,1 12,5 6,4 WNW 11,3 1006,3 96 -
05:27 13,0 12,4 11,3 WNW 12,9 1006,3 96 -
05:32 13,0 12,4 3,2 Westen 12,9 1006,3 96 -
05:37 12,9 12,3 6,4 Westen 12,9 1006,3 96 -
05:42 12,9 12,3 8,0 Westen 12,9 1006,7 96 -
05:47 12,8 12,2 1,6 Westen 11,3 1006,7 96 -
05:52 12,8 12,2 8,0 ZW 11,3 1006,7 96 -
05:57 12,8 12,2 8,0 WNW 11,3 1006,7 96 -
06:02 12,8 12,2 8,0 Westen 11,3 1006,7 96 -
06:07 12,8 12,2 6,4 Westen 14,5 1006,7 96 -
06:12 12,8 12,2 1,6 Westen 14,5 1006,7 96 -
06:17 12,8 12,2 3,2 WZW 12,9 1006,7 96 -
06:22 12,8 12,2 4,8 WZW 12,9 1006,7 96 -
06:27 12,8 12,2 3,2 WZW 6,4 1006,7 96 -
06:32 12,8 12,2 3,2 WNW 6,4 1006,7 96 -
06:37 12,8 12,2 3,2 ZW 8,0 1006,7 96 -
06:42 12,7 12,1 6,4 WZW 8,0 1007,0 96 -
06:47 12,7 12,1 1,6 ZW 8,0 1007,0 96 -
06:52 12,7 12,1 1,6 ZW 8,0 1007,0 96 -
06:57 12,7 12,1   Kalm 9,7 1007,0 96 -
07:02 12,6 12,0 4,8 ZW 9,7 1007,0 96 -
07:07 12,6 12,0   Kalm 6,4 1007,0 96 -
07:12 12,6 12,0   Kalm 6,4 1007,0 96 -
07:17 12,6 12,0   Kalm 6,4 1007,0 96 -
07:22 12,6 12,0   Kalm 6,4 1007,0 96 -
07:27 12,5 11,9   Kalm 6,4 1007,0 96 -
07:32 12,6 12,0 3,2 WZW   1007,3 96 -
07:37 12,5 11,9 1,6 WZW 6,4 1007,3 96 -
07:42 12,5 11,9 3,2 WZW 6,4 1007,3 96 -
07:47 12,5 11,9   Kalm 8,0 1007,7 96 -
07:52 12,5 11,9 1,6 WNW 8,0 1007,7 96 -
07:57 12,5 11,9 3,2 WZW 8,0 1007,7 96 -
08:02 12,5 11,9 3,2 ZZW 6,4 1007,7 96 -
08:07 12,5 11,9   Kalm 6,4 1008,0 96 -
08:12 12,5 11,9 1,6 ZW 6,4 1008,0 96 -
08:17 12,5 11,9 1,6 ZW 8,0 1008,0 96 -
08:22 12,5 11,9 6,4 WNW 8,0 1008,0 96 -
08:27 12,5 11,9 1,6 ZZW 8,0 1008,4 96 -
08:32 12,4 11,8   Kalm 9,7 1008,4 96 -
08:37 12,4 11,8   Kalm 11,3 1008,4 96 -
08:42 12,4 11,8   Kalm 11,3 1008,4 96 -
08:47 12,4 11,8 3,2 ZW 11,3 1008,4 96 -
08:52 12,4 11,8   Kalm 8,0 1008,4 96 -
08:57 12,4 11,8 3,2 ZW 9,7 1008,4 96 -
09:02 12,4 11,8 3,2 ZW 9,7 1008,4 96 -
09:07 12,4 11,8 3,2 WZW 9,7 1008,4 96 -
09:12 12,4 11,8   Kalm 9,7 1008,7 96 -
09:17 12,4 11,8   Kalm 9,7 1008,7 96 -
09:22 12,4 11,8 3,2 WZW 9,7 1008,7 96 -
09:27 12,4 11,8 1,6 WZW 9,7 1008,7 96 -
09:32 12,4 11,8 6,4 ZW 9,7 1008,7 96 -
09:37 12,4 11,8 1,6 ZW 9,7 1008,7 96 -
09:42 12,4 11,8 3,2 Westen 9,7 1009,0 96 -
09:47 12,4 11,8 3,2 ZW 11,3 1009,0 96 -
09:52 12,4 11,8 3,2 ZZO 11,3 1009,0 96 -
09:57 12,4 11,8   Kalm 9,7 1009,0 96 0,30
10:02 12,4 11,8 3,2 WZW 9,7 1009,0 96 0,30
10:07 12,4 11,8 1,6 ZW 9,7 1009,0 96 0,30
10:12 12,5 11,9 3,2 Westen 9,7 1009,0 96 0,30
10:17 12,6 12,0 1,6 Westen 8,0 1009,0 96 0,30
10:22 12,8 12,2   Kalm 6,4 1009,0 96 0,30
10:27 13,0 12,4   Kalm 6,4 1009,0 96 0,30
10:32 13,2 12,6 3,2 Westen 8,0 1009,0 96 0,30
10:37 13,3 12,7 6,4 ZW 8,0 1009,0 96 0,30
10:42 13,4 12,6 1,6 ZZW 8,0 1009,0 95 0,30
10:47 13,6 13,0 1,6 WNW 9,7 1009,0 96 0,30
10:52 13,7 12,9 3,2 Westen 9,7 1009,0 95 0,30
10:57 13,7 12,8 9,7 WZW 11,3 1009,0 94 -
11:02 13,8 12,7 3,2 ZZW 12,9 1009,0 93 -
11:07 13,9 12,8 1,6 Westen 12,9 1009,0 93 -
11:12 14,0 12,6   Kalm 12,9 1009,0 91 -
11:17 14,0 12,6 3,2 Zuiden 16,1 1009,0 91 -
11:22 14,2 12,6 8,0 WZW 16,1 1009,4 90 -
11:27 14,3 12,5 11,3 Westen 16,1 1009,4 89 -
11:32 14,4 12,6   Kalm 14,5 1009,4 89 -
11:37 14,6 12,8 8,0 WZW 14,5 1009,0 89 -
11:42 14,7 12,7   Kalm 14,5 1009,0 88 -
11:47 14,7 12,2 8,0 NW 12,9 1009,4 85 -
11:52 14,6 12,3   Kalm 16,1 1009,4 86 -
11:57 14,8 12,7 8,0 NW 16,1 1009,4 87 -
12:02 14,9 12,0 4,8 WZW 16,1 1009,4 83 -
12:07 14,8 11,8 9,7 Westen 17,7 1009,4 82 -
12:12 14,6 11,6 8,0 WZW 17,7 1009,4 82 -
12:17 14,5 11,6 3,2 ZW 17,7 1009,4 83 -
12:22 14,7 11,8 8,0 ZW 17,7 1009,4 83 -
12:27 14,9 12,2 9,7 ZW 20,9 1009,4 84 -
12:32 15,2 12,0 8,0 WZW 20,9 1009,4 81 -
12:37 15,3 12,1 11,3 WNW 17,7 1009,4 81 -
12:42 15,2 12,0 8,0 WZW 17,7 1009,4 81 -
12:47 15,2 12,1 3,2 Zuiden 14,5 1009,4 82 -
12:52 15,0 11,8   Kalm 14,5 1009,4 81 -
12:57 14,9 11,9 1,6 ZW 14,5 1009,4 82 -
13:02 14,7 11,7 3,2 ZO 14,5 1009,4 82 -
13:07 14,7 12,0 1,6 ZW 14,5 1009,0 84 -
13:12 14,8 12,3 8,0 WNW 14,5 1009,0 85 -
13:17 15,0 12,1 6,4 ZW 11,3 1009,0 83 -
13:22 15,2 12,3 4,8 WZW 14,5 1009,0 83 -
13:27 15,5 12,4 6,4 WZW 14,5 1009,0 82 -
13:32 15,8 12,7 4,8 Westen 14,5 1009,0 82 -
13:37 16,1 12,5 8,0 WZW 12,9 1009,0 79 -
13:42 16,3 12,7 1,6 ZW 12,9 1009,0 79 -
13:47 16,5 12,8 8,0 WZW 12,9 1009,0 79 -
13:52 16,6 12,4 6,4 Westen 12,9 1009,0 76 -
13:57 16,8 12,5 4,8 WNW 12,9 1008,7 76 -
14:02 16,8 12,3 6,4 WZW 14,5 1008,7 75 -
14:07 17,0 12,1 1,6 WZW 14,5 1008,7 73 -
14:12 16,9 11,8 1,6 Oosten 14,5 1008,7 72 -
14:17 16,8 11,9 4,8 ZZW 11,3 1008,7 73 -
14:22 16,7 11,4 8,0 WNW 12,9 1008,7 71 -
14:27 16,6 11,5 8,0 Westen 16,1 1008,7 72 -
14:32 16,6 11,5 4,8 ZZO 16,1 1009,0 72 -
14:37 16,4 11,3 3,2 Oosten 16,1 1008,7 72 -
14:42 16,3 11,5 3,2 WZW 16,1 1008,7 73 -
14:47 16,2 11,4   Kalm 16,1 1008,7 73 -
14:52 16,2 11,8 8,0 Westen 11,3 1008,7 75 -
14:57 16,1 11,3 4,8 ZW 11,3 1008,4 73 -
15:02 16,1 11,3 1,6 ZW 12,9 1008,4 73 -
15:07 16,1 11,3   Kalm 12,9 1008,4 73 -
15:12 16,1 11,5 3,2 WZW 12,9 1008,4 74 -
15:17 16,2 11,4 3,2 ZW 9,7 1008,4 73 -
15:22 16,3 11,2 1,6 ZW 8,0 1008,4 72 -
15:27 16,3 11,0   Kalm 8,0 1008,4 71 -
15:32 16,4 11,3 1,6 Westen 8,0 1008,4 72 -
15:37 16,3 11,5 3,2 WZW 11,3 1008,4 73 -
15:42 16,2 11,4   Kalm 11,3 1008,4 73 -
15:47 16,2 11,8 3,2 ZW 11,3 1008,4 75 -
15:52 16,1 11,5   Kalm 9,7 1008,0 74 -
15:57 16,0 11,4 1,6 Oosten 8,0 1008,0 74 -
16:02 15,9 11,3   Kalm 8,0 1008,0 74 -
16:07 15,8 11,2   Kalm 8,0 1008,0 74 -
16:12 15,8 11,2   Kalm 8,0 1008,0 74 -
16:17 15,8 11,2   Kalm 3,2 1008,0 74 -
16:22 15,8 11,4   Kalm 3,2 1008,0 75 -
16:27 15,8 11,4   Kalm   1008,0 75 -
16:32 15,8 11,6   Kalm   1008,0 76 -
16:37 15,8 11,6   Kalm   1007,7 76 -
16:42 15,8 11,6   Kalm   1007,7 76 -
16:47 15,8 11,4   Kalm   1007,7 75 -
16:52 15,8 11,6   Kalm   1007,7 76 -
16:57 15,9 11,7   Kalm   1007,7 76 -
17:02 15,9 11,7   Kalm   1007,3 76 -
17:07 15,9 11,5 1,6 OZO   1007,3 75 -
17:12 15,9 11,3 1,6 ZO 6,4 1007,3 74 -
17:17 15,8 11,4   Kalm 6,4 1007,7 75 -
17:22 15,7 11,5   Kalm 6,4 1007,3 76 -
17:27 15,6 11,6   Kalm 3,2 1007,3 77 -
17:32 15,5 11,5   Kalm   1007,3 77 -
17:37 15,4 11,4   Kalm   1007,3 77 -
17:42 15,3 11,5   Kalm   1007,3 78 -
17:47 15,2 11,6   Kalm   1007,3 79 -
17:52 15,1 11,7 3,2 OZO   1007,3 80 -
17:57 15,0 11,6   Kalm 6,4 1007,3 80 -
18:02 14,9 11,7   Kalm 6,4 1007,3 81 -
18:07 14,9 11,7   Kalm 4,8 1007,3 81 -
18:12 14,8 11,8   Kalm 6,4 1007,3 82 -
18:17 14,8 11,8   Kalm 6,4 1007,3 82 -
18:22 14,7 11,8   Kalm 6,4 1007,3 83 -
18:27 14,7 11,8   Kalm 6,4 1007,3 83 -
18:32 14,6 11,7   Kalm   1007,3 83 -
Dagelijkse Samenvatting Donderdag 17 oktober 2019
Tijd Temp. ( °C ) Dew pt. ( °C ) Wind ( km/h ) van Windvlaag ( km/h ) Luchtdruk ( hPa ) Humid.( % ) Rainrate ( cm )
Hoog17,0 13,6 12,9 WZW ( 236/781 ) 20,9 1009,4 97 1,50
Gemiddeld14,2 12,3 3,5 Kalm #58/223 10,6 1007,4 89 1,00
Laag12,4 11,0 -   0,0 1005,0 71 -
Dagelijkse Tabular details for Donderdag 17 oktober 2019
Tijd Temp. ( °C ) Dew pt. ( °C ) Wind ( km/h ) van Windvlaag ( km/h ) Luchtdruk ( hPa ) Humid.( % ) Rainrate ( cm )
00:02 14,1 13,5 8,0 ZZW 12,9 1005,0 96 1,50
00:07 14,1 13,5 8,0 ZW 16,1 1005,0 96 1,50
00:12 14,1 13,5 3,2 ZZW 16,1 1005,0 96 1,50
00:17 14,1 13,5 1,6 WZW 16,1 1005,0 96 1,50
00:22 14,1 13,5 4,8 WZW 16,1 1005,0 96 1,50
00:27 14,0 13,4 6,4 ZW 11,3 1005,0 96 1,50
00:32 14,0 13,4 3,2 WZW 12,9 1005,0 96 1,30
00:37 14,0 13,4 6,4 ZW 12,9 1005,0 96 1,00
00:42 14,0 13,4 8,0 ZW 12,9 1005,0 96 0,80
00:47 14,0 13,4 1,6 Westen 14,5 1005,0 96 0,80
00:52 13,9 13,3 1,6 ZZO 9,7 1005,0 96 0,50
00:57 13,9 13,3 1,6 ZZW 11,3 1005,0 96 0,50
01:02 13,9 13,3 6,4 ZW 11,3 1005,0 96 0,50
01:07 13,9 13,3 3,2 Westen 11,3 1005,0 96 0,30
01:12 13,9 13,3 11,3 ZZW 11,3 1005,0 96 0,50
01:17 13,9 13,3 11,3 ZW 11,3 1005,0 96 0,50
01:22 13,9 13,3 1,6 Westen 11,3 1005,0 96 0,30
01:27 13,8 13,2 6,4 ZW 11,3 1005,0 96 0,30
01:32 13,8 13,2 6,4 WZW 11,3 1005,0 96 0,30
01:37 13,8 13,2 3,2 WNW 11,3 1005,0 96 0,30
01:42 13,8 13,2 1,6 ZZW 14,5 1005,0 96 0,30
01:47 13,8 13,2 6,4 Zuiden 14,5 1005,0 96 0,30
01:52 13,8 13,2 8,0 WZW 14,5 1005,0 96 0,30
01:57 13,8 13,2 6,4 WZW 9,7 1005,0 96 0,30
02:02 13,8 13,2 12,9 WZW 14,5 1005,0 96 0,30
02:07 13,8 13,2 9,7 WZW 14,5 1005,0 96 0,30
02:12 13,8 13,2 1,6 WZW 14,5 1005,0 96 -
02:17 13,8 13,2 9,7 WZW 14,5 1005,0 96 -
02:22 13,8 13,2 9,7 ZZW 14,5 1005,0 96 -
02:27 13,8 13,2 4,8 ZW 14,5 1005,0 96 -
02:32 13,8 13,2 1,6 Zuiden 14,5 1005,3 96 -
02:37 13,8 13,2   Kalm 14,5 1005,3 96 -
02:42 13,8 13,2 3,2 ZW 11,3 1005,3 96 -
02:47 13,8 13,2 6,4 ZW 12,9 1005,3 96 -
02:52 13,8 13,2 1,6 Westen 12,9 1005,3 96 0,30
02:57 13,9 13,3 1,6 ZW 12,9 1005,3 96 0,30
03:02 13,9 13,3   Kalm 11,3 1005,3 96 0,30
03:07 13,9 13,3 4,8 WZW 11,3 1005,3 96 0,30
03:12 13,9 13,3 6,4 WZW 11,3 1005,3 96 0,30
03:17 13,9 13,3 3,2 ZW 11,3 1005,3 96 0,30
03:22 13,9 13,3 3,2 ZW 11,3 1005,3 96 0,30
03:27 13,9 13,3 6,4 WZW 11,3 1005,3 96 0,30
03:32 13,9 13,3 6,4 ZZW 17,7 1005,3 96 0,50
03:37 14,0 13,4 1,6 ZZW 17,7 1005,3 96 0,50
03:42 14,0 13,4 4,8 ZW 11,3 1005,3 96 0,50
03:47 14,0 13,4 9,7 WZW 11,3 1005,3 96 0,30
03:52 14,1 13,6 1,6 ZW 11,3 1005,6 97 0,30
03:57 14,1 13,6 1,6 Zuiden 11,3 1005,6 97 0,30
04:02 14,1 13,6 3,2 ZZW 12,9 1005,6 97 0,30
04:07 14,1 13,6 8,0 ZW 12,9 1005,6 97 0,50
04:12 14,1 13,6 9,7 NNW 12,9 1005,6 97 0,50
04:17 13,8 13,2 1,6 WNW 12,9 1005,6 96 0,50
04:22 13,7 13,1 3,2 WNW 12,9 1005,6 96 0,50
04:27 13,6 13,0 3,2 Westen 12,9 1005,6 96 0,50
04:32 13,4 12,8 1,6 WNW 12,9 1006,0 96 0,30
04:37 13,4 12,8 6,4 Westen 11,3 1006,0 96 0,30
04:42 13,3 12,7   Kalm 11,3 1006,0 96 0,30
04:47 13,3 12,7 3,2 Westen 11,3 1006,0 96 0,30
04:52 13,3 12,7 6,4 WNW 11,3 1006,0 96 0,30
04:57 13,3 12,7 1,6 WZW 11,3 1006,0 96 0,30
05:02 13,3 12,7 6,4 WNW 9,7 1006,0 96 0,30
05:07 13,2 12,6 3,2 WZW 9,7 1006,3 96 -
05:12 13,2 12,6 6,4 Westen 9,7 1006,3 96 -
05:17 13,1 12,5 8,0 WNW 11,3 1006,3 96 -
05:22 13,1 12,5 6,4 WNW 11,3 1006,3 96 -
05:27 13,0 12,4 11,3 WNW 12,9 1006,3 96 -
05:32 13,0 12,4 3,2 Westen 12,9 1006,3 96 -
05:37 12,9 12,3 6,4 Westen 12,9 1006,3 96 -
05:42 12,9 12,3 8,0 Westen 12,9 1006,7 96 -
05:47 12,8 12,2 1,6 Westen 11,3 1006,7 96 -
05:52 12,8 12,2 8,0 ZW 11,3 1006,7 96 -
05:57 12,8 12,2 8,0 WNW 11,3 1006,7 96 -
06:02 12,8 12,2 8,0 Westen 11,3 1006,7 96 -
06:07 12,8 12,2 6,4 Westen 14,5 1006,7 96 -
06:12 12,8 12,2 1,6 Westen 14,5 1006,7 96 -
06:17 12,8 12,2 3,2 WZW 12,9 1006,7 96 -
06:22 12,8 12,2 4,8 WZW 12,9 1006,7 96 -
06:27 12,8 12,2 3,2 WZW 6,4 1006,7 96 -
06:32 12,8 12,2 3,2 WNW 6,4 1006,7 96 -
06:37 12,8 12,2 3,2 ZW 8,0 1006,7 96 -
06:42 12,7 12,1 6,4 WZW 8,0 1007,0 96 -
06:47 12,7 12,1 1,6 ZW 8,0 1007,0 96 -
06:52 12,7 12,1 1,6 ZW 8,0 1007,0 96 -
06:57 12,7 12,1   Kalm 9,7 1007,0 96 -
07:02 12,6 12,0 4,8 ZW 9,7 1007,0 96 -
07:07 12,6 12,0   Kalm 6,4 1007,0 96 -
07:12 12,6 12,0   Kalm 6,4 1007,0 96 -
07:17 12,6 12,0   Kalm 6,4 1007,0 96 -
07:22 12,6 12,0   Kalm 6,4 1007,0 96 -
07:27 12,5 11,9   Kalm 6,4 1007,0 96 -
07:32 12,6 12,0 3,2 WZW   1007,3 96 -
07:37 12,5 11,9 1,6 WZW 6,4 1007,3 96 -
07:42 12,5 11,9 3,2 WZW 6,4 1007,3 96 -
07:47 12,5 11,9   Kalm 8,0 1007,7 96 -
07:52 12,5 11,9 1,6 WNW 8,0 1007,7 96 -
07:57 12,5 11,9 3,2 WZW 8,0 1007,7 96 -
08:02 12,5 11,9 3,2 ZZW 6,4 1007,7 96 -
08:07 12,5 11,9   Kalm 6,4 1008,0 96 -
08:12 12,5 11,9 1,6 ZW 6,4 1008,0 96 -
08:17 12,5 11,9 1,6 ZW 8,0 1008,0 96 -
08:22 12,5 11,9 6,4 WNW 8,0 1008,0 96 -
08:27 12,5 11,9 1,6 ZZW 8,0 1008,4 96 -
08:32 12,4 11,8   Kalm 9,7 1008,4 96 -
08:37 12,4 11,8   Kalm 11,3 1008,4 96 -
08:42 12,4 11,8   Kalm 11,3 1008,4 96 -
08:47 12,4 11,8 3,2 ZW 11,3 1008,4 96 -
08:52 12,4 11,8   Kalm 8,0 1008,4 96 -
08:57 12,4 11,8 3,2 ZW 9,7 1008,4 96 -
09:02 12,4 11,8 3,2 ZW 9,7 1008,4 96 -
09:07 12,4 11,8 3,2 WZW 9,7 1008,4 96 -
09:12 12,4 11,8   Kalm 9,7 1008,7 96 -
09:17 12,4 11,8   Kalm 9,7 1008,7 96 -
09:22 12,4 11,8 3,2 WZW 9,7 1008,7 96 -
09:27 12,4 11,8 1,6 WZW 9,7 1008,7 96 -
09:32 12,4 11,8 6,4 ZW 9,7 1008,7 96 -
09:37 12,4 11,8 1,6 ZW 9,7 1008,7 96 -
09:42 12,4 11,8 3,2 Westen 9,7 1009,0 96 -
09:47 12,4 11,8 3,2 ZW 11,3 1009,0 96 -
09:52 12,4 11,8 3,2 ZZO 11,3 1009,0 96 -
09:57 12,4 11,8   Kalm 9,7 1009,0 96 0,30
10:02 12,4 11,8 3,2 WZW 9,7 1009,0 96 0,30
10:07 12,4 11,8 1,6 ZW 9,7 1009,0 96 0,30
10:12 12,5 11,9 3,2 Westen 9,7 1009,0 96 0,30
10:17 12,6 12,0 1,6 Westen 8,0 1009,0 96 0,30
10:22 12,8 12,2   Kalm 6,4 1009,0 96 0,30
10:27 13,0 12,4   Kalm 6,4 1009,0 96 0,30
10:32 13,2 12,6 3,2 Westen 8,0 1009,0 96 0,30
10:37 13,3 12,7 6,4 ZW 8,0 1009,0 96 0,30
10:42 13,4 12,6 1,6 ZZW 8,0 1009,0 95 0,30
10:47 13,6 13,0 1,6 WNW 9,7 1009,0 96 0,30
10:52 13,7 12,9 3,2 Westen 9,7 1009,0 95 0,30
10:57 13,7 12,8 9,7 WZW 11,3 1009,0 94 -
11:02 13,8 12,7 3,2 ZZW 12,9 1009,0 93 -
11:07 13,9 12,8 1,6 Westen 12,9 1009,0 93 -
11:12 14,0 12,6   Kalm 12,9 1009,0 91 -
11:17 14,0 12,6 3,2 Zuiden 16,1 1009,0 91 -
11:22 14,2 12,6 8,0 WZW 16,1 1009,4 90 -
11:27 14,3 12,5 11,3 Westen 16,1 1009,4 89 -
11:32 14,4 12,6   Kalm 14,5 1009,4 89 -
11:37 14,6 12,8 8,0 WZW 14,5 1009,0 89 -
11:42 14,7 12,7   Kalm 14,5 1009,0 88 -
11:47 14,7 12,2 8,0 NW 12,9 1009,4 85 -
11:52 14,6 12,3   Kalm 16,1 1009,4 86 -
11:57 14,8 12,7 8,0 NW 16,1 1009,4 87 -
12:02 14,9 12,0 4,8 WZW 16,1 1009,4 83 -
12:07 14,8 11,8 9,7 Westen 17,7 1009,4 82 -
12:12 14,6 11,6 8,0 WZW 17,7 1009,4 82 -
12:17 14,5 11,6 3,2 ZW 17,7 1009,4 83 -
12:22 14,7 11,8 8,0 ZW 17,7 1009,4 83 -
12:27 14,9 12,2 9,7 ZW 20,9 1009,4 84 -
12:32 15,2 12,0 8,0 WZW 20,9 1009,4 81 -
12:37 15,3 12,1 11,3 WNW 17,7 1009,4 81 -
12:42 15,2 12,0 8,0 WZW 17,7 1009,4 81 -
12:47 15,2 12,1 3,2 Zuiden 14,5 1009,4 82 -
12:52 15,0 11,8   Kalm 14,5 1009,4 81 -
12:57 14,9 11,9 1,6 ZW 14,5 1009,4 82 -
13:02 14,7 11,7 3,2 ZO 14,5 1009,4 82 -
13:07 14,7 12,0 1,6 ZW 14,5 1009,0 84 -
13:12 14,8 12,3 8,0 WNW 14,5 1009,0 85 -
13:17 15,0 12,1 6,4 ZW 11,3 1009,0 83 -
13:22 15,2 12,3 4,8 WZW 14,5 1009,0 83 -
13:27 15,5 12,4 6,4 WZW 14,5 1009,0 82 -
13:32 15,8 12,7 4,8 Westen 14,5 1009,0 82 -
13:37 16,1 12,5 8,0 WZW 12,9 1009,0 79 -
13:42 16,3 12,7 1,6 ZW 12,9 1009,0 79 -
13:47 16,5 12,8 8,0 WZW 12,9 1009,0 79 -
13:52 16,6 12,4 6,4 Westen 12,9 1009,0 76 -
13:57 16,8 12,5 4,8 WNW 12,9 1008,7 76 -
14:02 16,8 12,3 6,4 WZW 14,5 1008,7 75 -
14:07 17,0 12,1 1,6 WZW 14,5 1008,7 73 -
14:12 16,9 11,8 1,6 Oosten 14,5 1008,7 72 -
14:17 16,8 11,9 4,8 ZZW 11,3 1008,7 73 -
14:22 16,7 11,4 8,0 WNW 12,9 1008,7 71 -
14:27 16,6 11,5 8,0 Westen 16,1 1008,7 72 -
14:32 16,6 11,5 4,8 ZZO 16,1 1009,0 72 -
14:37 16,4 11,3 3,2 Oosten 16,1 1008,7 72 -
14:42 16,3 11,5 3,2 WZW 16,1 1008,7 73 -
14:47 16,2 11,4   Kalm 16,1 1008,7 73 -
14:52 16,2 11,8 8,0 Westen 11,3 1008,7 75 -
14:57 16,1 11,3 4,8 ZW 11,3 1008,4 73 -
15:02 16,1 11,3 1,6 ZW 12,9 1008,4 73 -
15:07 16,1 11,3   Kalm 12,9 1008,4 73 -
15:12 16,1 11,5 3,2 WZW 12,9 1008,4 74 -
15:17 16,2 11,4 3,2 ZW 9,7 1008,4 73 -
15:22 16,3 11,2 1,6 ZW 8,0 1008,4 72 -
15:27 16,3 11,0   Kalm 8,0 1008,4 71 -
15:32 16,4 11,3 1,6 Westen 8,0 1008,4 72 -
15:37 16,3 11,5 3,2 WZW 11,3 1008,4 73 -
15:42 16,2 11,4   Kalm 11,3 1008,4 73 -
15:47 16,2 11,8 3,2 ZW 11,3 1008,4 75 -
15:52 16,1 11,5   Kalm 9,7 1008,0 74 -
15:57 16,0 11,4 1,6 Oosten 8,0 1008,0 74 -
16:02 15,9 11,3   Kalm 8,0 1008,0 74 -
16:07 15,8 11,2   Kalm 8,0 1008,0 74 -
16:12 15,8 11,2   Kalm 8,0 1008,0 74 -
16:17 15,8 11,2   Kalm 3,2 1008,0 74 -
16:22 15,8 11,4   Kalm 3,2 1008,0 75 -
16:27 15,8 11,4   Kalm   1008,0 75 -
16:32 15,8 11,6   Kalm   1008,0 76 -
16:37 15,8 11,6   Kalm   1007,7 76 -
16:42 15,8 11,6   Kalm   1007,7 76 -
16:47 15,8 11,4   Kalm   1007,7 75 -
16:52 15,8 11,6   Kalm   1007,7 76 -
16:57 15,9 11,7   Kalm   1007,7 76 -
17:02 15,9 11,7   Kalm   1007,3 76 -
17:07 15,9 11,5 1,6 OZO   1007,3 75 -
17:12 15,9 11,3 1,6 ZO 6,4 1007,3 74 -
17:17 15,8 11,4   Kalm 6,4 1007,7 75 -
17:22 15,7 11,5   Kalm 6,4 1007,3 76 -
17:27 15,6 11,6   Kalm 3,2 1007,3 77 -
17:32 15,5 11,5   Kalm   1007,3 77 -
17:37 15,4 11,4   Kalm   1007,3 77 -
17:42 15,3 11,5   Kalm   1007,3 78 -
17:47 15,2 11,6   Kalm   1007,3 79 -
17:52 15,1 11,7 3,2 OZO   1007,3 80 -
17:57 15,0 11,6   Kalm 6,4 1007,3 80 -
18:02 14,9 11,7   Kalm 6,4 1007,3 81 -
18:07 14,9 11,7   Kalm 4,8 1007,3 81 -
18:12 14,8 11,8   Kalm 6,4 1007,3 82 -
18:17 14,8 11,8   Kalm 6,4 1007,3 82 -
18:22 14,7 11,8   Kalm 6,4 1007,3 83 -
18:27 14,7 11,8   Kalm 6,4 1007,3 83 -
18:32 14,6 11,7   Kalm   1007,3 83 -

Download your copy of this data-set  here

Our weather-data as stored at Weather Underground. Script ontwikkeld door Jim McMurry. Aangepast voor de template door Leuven-Template.eu

U vindt ons ook hier:

Weather Underground

Apparatuur in gebruik:

Weerstation
Davis VP2

Weerprogramma
Meteohub

Weercomputer
Raspberry Pi

Webleverancier
My provider

Davis VP2

Meteohub

Raspberry Pi

My provider